{"data":{"norad_id":55433,"epoch":"2026-05-24T17:52:57.980928Z","epoch_age_seconds":96774,"freshness":"FRESH","line1":"1 55433U 23014AU  26144.74511552 -.00001048  00000+0 -80057-4 0  9995","line2":"2 55433  69.9994 272.5859 0002648 268.5194  91.5661 14.98320917182464","mean_motion":14.98320917,"eccentricity":0.0002648,"inclination_deg":69.9994,"raan_deg":272.5859,"arg_perigee_deg":268.5194,"mean_anomaly_deg":91.5661,"bstar":-8.0057e-5,"rev_number":18246,"period_min":96.107581737778,"perigee_km":570.24356099918,"apogee_km":573.92439802993,"semimajor_km":6950.2209795146,"source":"CELESTRAK","updated_at":"2026-05-25T13:38:17.800624Z"}}